Stations météo

réclame
Mon MeteoGroup
Frankfurt/Main, Allemagne (10637): Température de l'air & dewpoint: 13.07.2018 21:00:00 - 19.07.2018 21:00:00 (CEST)Frankfurt/Main, Allemagne (10637): Température de l'air 5cm & Température de l'air -5cm: 13.07.2018 21:00:00 - 19.07.2018 21:00:00 (CEST)Frankfurt/Main, Allemagne (10637): Température de l'air -20cm & Température de l'air -100cm: 13.07.2018 21:00:00 - 19.07.2018 21:00:00 (CEST)Frankfurt/Main, Allemagne (10637): Vitesse du vent & gusts: 13.07.2018 21:00:00 - 19.07.2018 21:00:00 (CEST)Frankfurt/Main, Allemagne (10637): Direction du vent: 13.07.2018 21:00:00 - 19.07.2018 21:00:00 (CEST)Frankfurt/Main, Allemagne (10637): reduced air pressure: 13.07.2018 21:00:00 - 19.07.2018 21:00:00 (CEST)Frankfurt/Main, Allemagne (10637): visibility: 13.07.2018 21:00:00 - 19.07.2018 21:00:00 (CEST)Frankfurt/Main, Allemagne (10637): Ensoleillement: 13.07.2018 21:00:00 - 19.07.2018 21:00:00 (CEST)Frankfurt/Main, Allemagne (10637): Quantités de précipitations: 13.07.2018 21:00:00 - 19.07.2018 21:00:00 (CEST)
Date & Time tt [°C] td [°C] tt 5cm [°C] tt -5cm [°C] tt -20cm [°C] tt -100cm [°C] ff [km/h] ff [knt] fx [km/h] fx [knt] dd ppp [hPa] vv [km] sd [min] rr [mm]
19.07.2018 21:00:00 27,2 5,2 25,8 31,4 30,2 23,1 15 8 23 13 NNE 1014,8 10 36 0,0
19.07.2018 20:00:00 28,2 5,4 30,3 33,6 30,4 23,1 9 5 29 16 NNE 1014,9 65 60 0,0
19.07.2018 19:00:00 28,7 5,7 31,8 35,9 30,4 23,1 10 5 25 14 N 1014,9 65 60 0,0
19.07.2018 18:00:00 28,7 5,7 35,1 37,6 30,1 23,1 15 8 42 23 NNE 1015,3 10 60 0,0
19.07.2018 17:00:00 28,1 6,1 35,2 38,4 29,6 23,1 16 9 25 14 N 1015,9 10 60 0,0
19.07.2018 16:00:00 28,5 6,0 35,6 38,4 29,0 23,1 10 5 27 14 N 1016,3 60 60 0,0
19.07.2018 15:00:00 27,4 6,2 35,5 37,7 28,2 23,1 15 8 36 20 NNE 1016,6 10 60 0,0
19.07.2018 14:00:00 26,9 6,6 36,4 36,2 27,4 23,1 13 7 25 13 - 1017,2 10 60 0,0
19.07.2018 13:00:00 25,7 7,5 32,8 34,1 26,6 23,1 8 4 27 14 - 1017,8 10 58 0,0
19.07.2018 12:00:00 26,0 7,9 31,1 31,7 26,0 23,1 13 7 29 16 - 1018,0 10 60 0,0
19.07.2018 11:00:00 24,8 8,8 30,3 29,2 25,5 23,1 10 6 22 12 NE 1018,3 50 60 0,0
19.07.2018 10:00:00 23,0 10,0 28,4 26,7 25,2 23,1 13 7 22 12 NE 1018,6 10 60 0,0
19.07.2018 09:00:00 21,9 9,4 24,9 24,5 25,2 23,1 15 8 26 14 NNE 1018,4 10 60 0,0
19.07.2018 08:00:00 20,2 9,3 21,3 23,0 25,3 23,0 16 9 21 11 NNE 1018,2 10 54 0,0
19.07.2018 07:00:00 18,8 9,5 18,4 22,4 25,6 23,0 16 9 15 8 NNE 1018,3 10 28 0,0
19.07.2018 06:00:00 19,0 9,4 17,8 22,5 26,0 23,0 10 6 25 13 NNE 1018,0 45 0 0,0
19.07.2018 05:00:00 19,0 9,4 16,7 22,9 26,3 23,0 9 5 8 4 NE 1018,1 10 0 0,0
19.07.2018 04:00:00 19,0 9,4 16,6 23,6 26,7 23,0 11 6 11 6 NNE 1018,0 10 0 0,0
19.07.2018 03:00:00 20,2 9,4 18,8 24,2 27,1 23,0 13 7 16 9 NNE 1017,9 10 0 0,0
19.07.2018 02:00:00 20,9 9,2 19,3 24,9 27,5 23,0 13 7 21 11 NNE 1017,9 10 0 0,0
19.07.2018 01:00:00 21,9 9,2 20,6 25,6 28,0 22,9 12 7 22 12 NNE 1017,4 50 0 0,0
19.07.2018 00:00:00 22,7 8,9 21,3 26,4 28,5 22,9 14 8 24 13 NNE 1017,2 50 0 0,0
18.07.2018 23:00:00 23,0 7,9 21,0 27,4 29,0 22,9 16 9 18 10 N 1016,7 10 0 0,0
18.07.2018 22:00:00 23,5 7,7 20,8 29,1 29,5 22,9 15 8 24 13 NNW 1016,2 10 15 0,0
18.07.2018 21:00:00 25,9 6,7 24,6 31,4 29,9 22,9 15 8 29 16 WNW 1015,9 10 60 0,0
18.07.2018 20:00:00 27,5 5,8 28,6 33,8 30,0 22,9 15 8 28 15 WNW 1015,7 10 60 0,0
18.07.2018 19:00:00 28,2 5,5 31,5 35,7 30,0 22,9 17 9 31 17 NW 1015,8 60 60 0,0
18.07.2018 18:00:00 27,9 5,3 32,5 37,1 29,7 22,9 15 8 34 18 - 1016,1 10 59 0,0
18.07.2018 17:00:00 28,1 5,7 33,3 37,7 29,2 22,9 11 6 33 18 - 1016,4 10 60 0,0
18.07.2018 16:00:00 27,8 5,6 34,6 37,7 28,6 22,9 16 9 38 21 W 1016,6 10 60 0,0
18.07.2018 15:00:00 28,1 6,5 34,7 37,3 27,9 22,9 18 10 30 16 - 1016,7 10 60 0,0
18.07.2018 14:00:00 26,8 6,0 32,9 36,0 27,1 22,9 15 8 28 15 WNW 1017,1 10 60 0,0
18.07.2018 13:00:00 26,2 7,4 32,1 34,3 26,3 22,9 22 12 31 17 W 1017,6 10 60 0,0
18.07.2018 12:00:00 25,0 7,5 30,5 32,1 25,6 22,9 11 6 31 17 - 1017,9 10 60 0,0
18.07.2018 11:00:00 23,7 7,7 29,1 29,6 25,1 22,9 21 11 29 16 WNW 1018,2 10 60 0,0
18.07.2018 10:00:00 23,5 8,7 27,3 27,1 24,7 22,9 5 3 21 11 W 1018,1 50 60 0,0
18.07.2018 09:00:00 22,4 9,9 25,0 24,5 24,6 22,9 8 4 18 10 WNW 1018,2 10 60 0,0
18.07.2018 08:00:00 20,3 11,2 21,4 22,6 24,7 22,9 6 4 14 7 NW 1018,1 50 53 0,0
18.07.2018 07:00:00 17,6 12,4 16,8 21,8 24,9 22,9 4 2 5 3 - 1017,9 10 35 0,0
18.07.2018 06:00:00 16,2 11,9 13,6 22,2 25,2 22,9 8 4 8 4 SW 1017,8 10 0 0,0
18.07.2018 05:00:00 18,1 12,1 16,0 22,9 25,5 22,9 9 5 8 4 NNW 1017,6 10 0 0,0
18.07.2018 04:00:00 19,9 12,0 19,0 23,3 25,8 22,9 13 7 8 4 WNW 1017,1 10 0 0,0
18.07.2018 03:00:00 21,0 11,6 19,4 23,6 26,1 22,9 2 1 11 6 ESE 1016,8 60 0 0,0
18.07.2018 02:00:00 19,3 11,4 17,0 24,2 26,5 22,8 10 5 18 10 NW 1016,6 60 0 0,0
18.07.2018 01:00:00 22,6 11,0 21,6 24,9 26,8 22,8 8 4 18 10 NNW 1016,1 60 0 0,0
18.07.2018 00:00:00 22,3 11,5 21,0 25,6 27,2 22,8 13 7 28 15 NNW 1015,9 60 0 0,0
17.07.2018 23:00:00 23,3 12,0 22,3 26,4 27,6 22,8 18 10 29 16 NW 1015,6 10 0 0,0
17.07.2018 22:00:00 24,5 10,9 23,1 27,6 27,9 22,8 21 11 18 10 NW 1015,3 10 0 0,0
17.07.2018 21:00:00 26,1 9,3 24,0 29,6 28,1 22,8 12 7 25 13 NW 1014,3 60 40 0,0
17.07.2018 20:00:00 27,9 8,0 29,4 31,1 28,0 22,8 16 8 23 12 NW 1013,9 60 60 0,0
17.07.2018 19:00:00 28,4 7,9 30,6 31,3 28,0 22,8 13 7 40 21 NNW 1013,5 60 49 0,0
17.07.2018 18:00:00 27,7 10,1 28,8 30,8 28,0 22,8 28 15 41 22 W 1013,5 10 2 0,0
17.07.2018 17:00:00 29,6 7,8 30,1 31,4 28,0 22,8 15 8 31 17 S 1012,8 60 3 0,0
17.07.2018 16:00:00 29,1 9,6 31,0 31,9 27,9 22,8 11 6 20 11 SE 1013,1 10 9 0,0
17.07.2018 15:00:00 29,9 10,2 36,8 32,2 27,8 22,8 14 8 22 12 E 1013,2 60 22 0,0
17.07.2018 14:00:00 26,3 12,5 25,1 35,0 27,2 22,8 9 5 64 34 E 1013,7 60 27 0,1
17.07.2018 13:00:00 30,3 8,7 35,9 35,1 26,3 22,8 15 8 26 14 W 1013,6 10 60 0,0
17.07.2018 12:00:00 27,9 10,8 35,0 32,6 25,5 22,8 11 6 23 13 SSW 1013,9 50 60 0,0
17.07.2018 11:00:00 25,8 12,3 30,1 29,6 24,8 22,8 9 5 21 11 SSW 1013,9 40 60 0,0
17.07.2018 10:00:00 23,4 12,8 27,3 26,7 24,4 22,8 9 5 21 11 S 1014,0 10 60 0,0
17.07.2018 09:00:00 21,5 12,4 24,0 23,8 24,3 22,8 7 4 15 8 SSW 1014,3 40 60 0,0
17.07.2018 08:00:00 19,2 11,6 20,0 21,9 24,5 22,8 4 2 9 5 - 1014,2 10 54 0,0
17.07.2018 07:00:00 15,2 11,2 14,7 21,0 24,8 22,8 5 3 5 3 SSW 1014,1 10 39 0,0
17.07.2018 06:00:00 13,6 10,8 11,2 21,2 25,1 22,7 4 2 5 3 ESE 1013,8 55 0 0,0
17.07.2018 05:00:00 14,3 10,9 12,2 21,7 25,5 22,7 4 2 9 5 ENE 1013,4 60 0 0,0
17.07.2018 04:00:00 14,8 10,9 12,6 22,4 25,9 22,7 5 3 11 6 WSW 1013,3 10 0 0,0
17.07.2018 03:00:00 15,8 10,8 13,4 23,1 26,3 22,7 2 1 5 3 - 1013,2 10 0 0,0
17.07.2018 02:00:00 17,0 11,0 14,1 23,9 26,7 22,7 3 2 9 5 ENE 1013,2 60 0 0,0
17.07.2018 01:00:00 18,2 11,1 15,5 24,7 27,2 22,7 2 1 8 4 - 1013,0 10 0 0,0
17.07.2018 00:00:00 19,8 11,0 18,0 25,7 27,6 22,7 5 3 9 5 SW 1012,8 10 0 0,0
16.07.2018 23:00:00 21,6 10,6 18,7 26,9 28,0 22,7 9 5 15 8 N 1012,3 10 0 0,0
16.07.2018 22:00:00 24,8 9,9 23,1 28,4 28,4 22,7 13 7 14 8 ESE 1011,6 10 11 0,0
16.07.2018 21:00:00 26,8 8,2 26,1 30,0 28,6 22,7 14 8 22 12 NNE 1011,1 60 26 0,0
16.07.2018 20:00:00 27,8 10,1 28,2 31,7 28,7 22,7 9 5 28 15 W 1010,5 10 30 0,0
16.07.2018 19:00:00 29,0 10,8 31,9 32,6 28,7 22,7 9 5 22 12 WSW 1010,5 10 55 0,0
16.07.2018 18:00:00 28,0 10,4 29,8 32,3 28,8 22,7 5 3 15 8 E 1010,5 60 0 0,0
16.07.2018 17:00:00 28,6 9,4 31,0 34,0 28,7 22,7 9 5 18 10 S 1010,8 60 10 0,0
16.07.2018 16:00:00 27,9 9,4 30,9 37,1 28,1 22,7 9 5 18 10 SSW 1011,2 60 36 0,0
16.07.2018 15:00:00 28,7 9,8 35,7 36,7 27,3 22,7 9 5 28 15 - 1011,7 10 60 0,0
16.07.2018 14:00:00 27,6 9,9 33,7 35,0 26,4 22,7 8 4 23 13 - 1012,6 10 60 0,0
16.07.2018 13:00:00 26,8 10,8 33,5 32,7 25,6 22,7 8 4 30 16 WNW 1012,9 60 60 0,0
16.07.2018 12:00:00 25,6 11,6 30,4 29,5 25,1 22,7 11 6 17 9 SE 1013,5 10 50 0,0
16.07.2018 11:00:00 22,5 14,0 24,8 26,6 24,8 22,7 8 4 22 12 SE 1014,2 40 0 0,0
16.07.2018 10:00:00 21,5 14,2 24,0 26,3 24,6 22,7 5 3 17 9 SW 1014,3 35 32 0,0
16.07.2018 09:00:00 20,5 14,1 22,8 24,4 24,5 22,6 4 2 18 10 SSW 1014,3 35 33 0,0
16.07.2018 08:00:00 19,9 13,6 20,4 23,0 24,6 22,6 7 4 15 8 SSE 1014,1 35 36 0,0
16.07.2018 07:00:00 17,6 13,7 17,6 22,2 24,8 22,6 4 2 13 7 E 1014,4 35 0 0,0
16.07.2018 06:00:00 16,8 13,3 16,0 22,4 25,0 22,6 3 2 9 5 SE 1014,5 50 0 0,0
16.07.2018 05:00:00 17,5 13,5 16,9 22,6 25,3 22,6 4 2 13 7 - 1014,7 10 0 0,0
16.07.2018 04:00:00 17,3 12,9 16,2 22,9 25,6 22,6 5 3 9 5 WSW 1014,6 10 0 0,0
16.07.2018 03:00:00 18,2 12,9 17,1 23,2 25,9 22,6 5 3 13 7 SSW 1014,6 10 0 0,0
16.07.2018 02:00:00 18,2 13,4 17,5 23,8 26,2 22,5 8 4 16 9 S 1015,0 50 0 0,0
16.07.2018 01:00:00 18,9 13,0 18,5 24,4 26,5 22,5 8 4 11 6 S 1014,6 50 0 0,0
16.07.2018 00:00:00 20,2 12,6 19,5 24,8 26,9 22,5 8 4 26 14 W 1014,4 50 0 0,0
15.07.2018 23:00:00 20,4 12,9 19,7 25,3 27,3 22,5 16 8 26 14 W 1014,5 50 0 0,0
15.07.2018 22:00:00 20,6 13,1 20,0 26,1 27,7 22,5 13 7 26 14 W 1014,4 35 0 0,0
15.07.2018 21:00:00 21,5 13,2 20,8 27,2 28,2 22,5 18 10 41 22 SSW 1014,1 10 0 0,0
15.07.2018 20:00:00 22,5 14,4 20,3 29,4 28,5 22,5 8 4 48 26 S 1014,3 10 0 0,0
15.07.2018 19:00:00 26,3 10,6 26,6 31,3 28,6 22,5 16 9 23 13 S 1013,3 60 0 0,0
15.07.2018 18:00:00 28,0 10,1 29,8 32,2 28,7 22,5 7 4 15 8 ESE 1013,0 60 10 0,0
15.07.2018 17:00:00 28,5 7,7 29,5 33,3 28,6 22,5 9 5 29 16 ENE 1013,1 60 0 0,0
15.07.2018 16:00:00 28,5 7,9 30,3 36,3 28,1 22,5 19 10 29 16 NNE 1013,3 50 37 0,0
15.07.2018 15:00:00 29,3 9,6 37,6 35,3 27,5 22,5 13 7 29 16 N 1013,8 55 40 0,0
15.07.2018 14:00:00 28,4 11,1 37,8 33,6 27,0 22,4 11 6 36 20 - 1014,4 10 25 0,0
15.07.2018 13:00:00 26,6 11,8 32,0 33,0 26,4 22,4 5 3 24 13 - 1015,4 10 8 0,0
15.07.2018 12:00:00 26,2 11,7 33,0 32,3 25,7 22,4 9 5 29 16 - 1016,0 10 55 0,0
15.07.2018 11:00:00 25,5 11,6 32,9 29,5 25,2 22,4 14 8 29 15 NNE 1016,1 50 60 0,0
15.07.2018 10:00:00 23,4 12,0 27,6 26,8 24,9 22,4 11 6 16 9 NNE 1016,3 45 60 0,0
15.07.2018 09:00:00 22,0 12,2 25,7 24,7 24,8 22,4 11 6 21 11 NE 1016,6 45 60 0,0
15.07.2018 08:00:00 20,6 12,2 21,9 23,2 25,0 22,4 15 8 24 13 NNE 1016,5 45 54 0,0
15.07.2018 07:00:00 19,9 12,4 19,5 22,6 25,2 22,3 14 8 22 12 NE 1016,2 45 34 0,0
15.07.2018 06:00:00 19,4 12,5 18,1 22,8 25,5 22,3 9 5 18 10 NNE 1016,4 10 0 0,0
15.07.2018 05:00:00 20,0 12,7 18,7 23,3 25,9 22,3 11 6 22 12 NE 1016,4 10 0 0,0
15.07.2018 04:00:00 20,4 12,6 19,2 23,8 26,2 22,3 15 8 22 12 NNE 1016,6 10 0 0,0
15.07.2018 03:00:00 21,0 12,7 19,9 24,5 26,6 22,3 14 8 22 12 NE 1016,7 40 0 0,0
15.07.2018 02:00:00 22,0 12,8 20,9 25,1 26,9 22,3 16 9 29 16 NNE 1017,0 10 0 0,0
15.07.2018 01:00:00 23,1 12,8 22,0 25,9 27,3 22,2 18 10 34 18 NNE 1016,9 45 0 0,0
15.07.2018 00:00:00 23,7 12,7 22,9 26,6 27,7 22,2 24 13 34 18 NNE 1016,7 10 0 0,0
14.07.2018 23:00:00 24,9 12,0 23,7 27,4 28,1 22,2 21 11 34 18 N 1016,5 10 0 0,0
14.07.2018 22:00:00 25,4 10,5 23,9 28,7 28,5 22,2 12 7 28 15 NNW 1016,1 55 0 0,0
14.07.2018 21:00:00 26,3 9,7 25,7 30,2 28,9 22,2 9 5 22 12 NNW 1015,6 10 0 0,0
14.07.2018 20:00:00 28,2 8,4 27,5 32,5 29,0 22,2 8 4 25 14 WNW 1015,5 10 28 0,0
14.07.2018 19:00:00 29,5 8,2 32,8 33,8 29,0 22,2 6 3 11 6 SSW 1015,4 70 31 0,0
14.07.2018 18:00:00 28,8 7,9 30,6 35,0 28,9 22,2 5 3 16 9 WSW 1015,8 10 20 0,0
14.07.2018 17:00:00 29,3 7,8 34,3 36,2 28,6 22,2 9 5 21 11 NNE 1016,2 65 22 0,0
14.07.2018 16:00:00 29,5 8,1 36,5 37,6 27,9 22,2 11 6 24 13 N 1016,6 60 50 0,0
14.07.2018 15:00:00 28,9 7,4 37,7 36,6 27,1 22,2 11 6 26 14 - 1017,0 10 60 0,0
14.07.2018 14:00:00 28,1 8,5 33,2 35,6 26,3 22,2 13 7 25 14 - 1017,8 10 50 0,0
14.07.2018 13:00:00 27,5 8,8 34,8 34,1 25,5 22,2 14 7 29 16 NNE 1018,4 50 60 0,0
14.07.2018 12:00:00 27,1 9,5 33,8 31,7 24,7 22,2 10 5 26 14 NNE 1018,8 50 60 0,0
14.07.2018 11:00:00 25,7 11,3 32,1 29,0 24,1 22,2 10 5 26 14 NNE 1019,4 50 60 0,0
14.07.2018 10:00:00 24,1 11,2 29,3 26,3 23,7 22,2 13 7 22 12 NNE 1019,6 10 60 0,0
14.07.2018 09:00:00 22,3 11,5 25,6 23,8 23,6 22,2 10 5 18 10 NNE 1019,6 50 51 0,0
14.07.2018 08:00:00 20,1 11,8 20,2 22,3 23,7 22,2 8 4 11 6 NE 1019,5 50 0 0,0
14.07.2018 07:00:00 19,9 11,8 19,5 21,9 23,8 22,2 5 3 8 4 ENE 1019,3 50 4 0,0
14.07.2018 06:00:00 19,6 11,7 19,0 21,9 24,0 22,2 5 3 9 5 NE 1019,3 50 0 0,0
14.07.2018 05:00:00 19,4 11,8 18,5 22,0 24,2 22,1 6 3 8 4 NE 1019,2 50 0 0,0
14.07.2018 04:00:00 20,1 11,8 19,1 22,3 24,5 22,1 6 4 8 4 NE 1019,1 40 0 0,0
14.07.2018 03:00:00 19,9 11,8 19,0 22,3 24,8 22,1 6 3 9 5 NE 1019,2 50 0 0,0
14.07.2018 02:00:00 19,8 11,7 17,8 22,7 25,1 22,1 7 4 11 6 NE 1019,3 50 0 0,0
14.07.2018 01:00:00 20,8 12,3 19,2 23,2 25,5 22,1 16 9 11 6 NNE 1019,3 10 0 0,0
14.07.2018 00:00:00 21,7 11,9 19,7 23,9 25,9 22,1 9 5 18 10 NNE 1019,2 10 0 0,0
13.07.2018 23:00:00 21,1 12,3 18,5 24,9 26,3 22,1 6 3 14 7 NNE 1018,9 60 0 0,0
13.07.2018 22:00:00 21,3 12,0 19,3 26,2 26,6 22,1 5 3 11 6 NNE 1018,4 60 0 0,0
13.07.2018 21:00:00 24,6 11,6 22,8 27,9 26,8 22,1 7 4 18 10 N 1017,9 60 49 0,0

tt = Température de l'air
td = dewpoint
tt 5cm = Température de l'air 5cm
tt -5cm = Température de l'air -5cm
tt -20cm = Température de l'air -20cm
tt -100cm = Température de l'air -100cm
ff = Vitesse du vent
fx = gusts
dd = Direction du vent
ppp = reduced air pressure
vv = visibility
sd = Ensoleillement
rr = Quantités de précipitations

stations d'obs. à proximité